Tracking 35334 objects as of 13-Sep-2026
HD Live streaming from Space Station
objects crossing your sky now

SL-12 DEB


SL-12 DEB is no longer on orbit


NORAD ID: 28771
Int'l Code: 2002-037BS
Launch date: July 25, 2002
Source: Commonwealth of Independent States (former USSR) (CIS)
Launch site: TYURATAM MISSILE AND SPACE COMPLEX (TTMTR)
Decay date: 2005-12-28

Note: This is SATELLITE DEBRIS
Your satellite tracking list
Your tracking list is empty




NASA's NSSDC Master Catalog

Two Line Element Set (TLE):
1 28771U 02037BS  05361.83522525  .03956198  79374-5  22994-2 0  9998
2 28771 063.5624 147.5230 0054680 100.3821 260.8579 16.14684441 26984
Source of the keplerian elements: AFSPC